Time,TemperatureF,DewpointF,PressureIn,WindDirection,WindDirectionDegrees,WindSpeedMPH,WindSpeedGustMPH,Humidity,HourlyPrecipIn,Conditions,Clouds,dailyrainin,SoftwareType,DateUTC
2013-03-18 00:00:00,36.6,33.4,30.06,NE,39,4.5,7.4,88,0.00,,SCT,0.00,VWS V14.01,2013-03-18 04:00:00,
2013-03-18 00:05:00,36.6,33.4,30.06,NE,35,5.4,5.4,88,0.00,,SCT,0.00,VWS V14.01,2013-03-18 04:05:00,
2013-03-18 00:10:00,36.6,33.4,30.06,ENE,58,6.3,6.3,88,0.00,,SCT,0.00,VWS V14.01,2013-03-18 04:10:00,
2013-03-18 00:15:00,36.6,33.4,30.06,East,87,3.1,3.1,88,0.00,,SCT,0.00,VWS V14.01,2013-03-18 04:15:00,
2013-03-18 00:20:00,36.6,33.4,30.06,NE,43,5.4,5.4,88,0.00,,SCT,0.00,VWS V14.01,2013-03-18 04:20:00,
2013-03-18 00:25:00,36.6,33.4,30.06,ENE,67,6.7,6.7,88,0.00,,SCT,0.00,VWS V14.01,2013-03-18 04:25:00,
2013-03-18 00:30:00,36.6,33.7,30.06,ENE,66,4.0,6.9,89,0.00,,SCT,0.00,VWS V14.01,2013-03-18 04:30:00,
2013-03-18 00:35:00,36.6,33.7,30.06,NE,52,4.0,4.0,89,0.00,,SCT,0.00,VWS V14.01,2013-03-18 04:35:00,
2013-03-18 00:40:00,36.4,33.5,30.06,NE,44,3.6,3.6,89,0.00,,SCT,0.00,VWS V14.01,2013-03-18 04:40:00,
2013-03-18 00:45:00,36.4,33.5,30.06,NE,47,5.8,6.3,89,0.00,,SCT,0.00,VWS V14.01,2013-03-18 04:45:00,
2013-03-18 00:50:00,36.4,33.5,30.06,NNE,24,13.9,13.9,89,0.00,,SCT,0.00,VWS V14.01,2013-03-18 04:50:00,
2013-03-18 00:55:00,36.4,33.5,30.06,NNE,30,5.8,8.3,89,0.00,,SCT,0.00,VWS V14.01,2013-03-18 04:55:00,
2013-03-18 01:00:00,36.4,33.5,30.06,ENE,60,5.8,5.8,89,0.00,,SCT,0.00,VWS V14.01,2013-03-18 05:00:00,
2013-03-18 01:05:00,36.4,33.5,30.06,NE,38,5.4,5.4,89,0.00,,SCT,0.00,VWS V14.01,2013-03-18 05:05:00,
2013-03-18 01:10:00,36.4,33.5,30.06,ENE,63,4.0,6.3,89,0.00,,SCT,0.00,VWS V14.01,2013-03-18 05:10:00,
2013-03-18 01:15:00,36.4,33.8,30.15,NE,47,3.1,5.8,90,0.00,,SCT,0.00,VWS V14.01,2013-03-18 05:15:00,
2013-03-18 01:20:00,36.4,33.8,30.15,ENE,59,4.0,5.8,90,0.00,,SCT,0.00,VWS V14.01,2013-03-18 05:20:00,
2013-03-18 01:25:00,36.4,33.8,30.15,NE,53,5.8,6.7,90,0.00,,SCT,0.00,VWS V14.01,2013-03-18 05:25:00,
2013-03-18 01:30:00,36.4,33.8,30.15,NE,38,5.4,7.4,90,0.00,,SCT,0.00,VWS V14.01,2013-03-18 05:30:00,
2013-03-18 01:35:00,36.4,33.8,30.15,NE,56,2.7,5.4,90,0.00,,SCT,0.00,VWS V14.01,2013-03-18 05:35:00,
2013-03-18 01:40:00,36.4,33.8,30.15,NE,49,6.7,6.7,90,0.00,,SCT,0.00,VWS V14.01,2013-03-18 05:40:00,
2013-03-18 01:45:00,36.4,33.8,30.15,ENE,59,5.4,5.4,90,0.00,,SCT,0.00,VWS V14.01,2013-03-18 05:45:00,
2013-03-18 01:50:00,36.4,33.8,30.15,NNE,31,5.8,5.8,90,0.00,,SCT,0.00,VWS V14.01,2013-03-18 05:50:00,
2013-03-18 01:55:00,36.4,33.8,30.15,ENE,57,5.4,6.9,90,0.00,,SCT,0.00,VWS V14.01,2013-03-18 05:55:00,
2013-03-18 02:00:00,36.4,34.0,30.15,NNE,19,6.3,8.3,91,0.00,,SCT,0.00,VWS V14.01,2013-03-18 06:00:00,
2013-03-18 02:05:00,36.4,34.0,30.15,NE,48,6.3,6.3,91,0.00,,SCT,0.00,VWS V14.01,2013-03-18 06:05:00,
2013-03-18 02:10:00,36.4,34.0,30.15,NE,46,4.0,5.8,91,0.00,,SCT,0.00,VWS V14.01,2013-03-18 06:10:00,
2013-03-18 02:15:00,36.4,34.0,30.15,NNE,32,4.0,6.7,91,0.00,,SCT,0.00,VWS V14.01,2013-03-18 06:15:00,
2013-03-18 02:20:00,36.4,34.0,30.15,East,81,6.7,8.7,91,0.00,,SCT,0.00,VWS V14.01,2013-03-18 06:20:00,
2013-03-18 02:25:00,36.4,34.0,30.15,ENE,59,5.4,8.7,91,0.00,,SCT,0.00,VWS V14.01,2013-03-18 06:25:00,
2013-03-18 02:30:00,36.4,34.0,30.15,NE,44,4.5,7.8,91,0.00,,SCT,0.00,VWS V14.01,2013-03-18 06:30:00,
2013-03-18 02:35:00,36.4,34.0,30.15,ENE,62,4.5,7.8,91,0.00,,SCT,0.00,VWS V14.01,2013-03-18 06:35:00,
2013-03-18 02:40:00,36.4,34.0,30.15,NE,45,8.7,8.7,91,0.00,,SCT,0.00,VWS V14.01,2013-03-18 06:40:00,
2013-03-18 02:45:00,36.4,34.0,30.15,ENE,67,4.5,5.8,91,0.00,,SCT,0.00,VWS V14.01,2013-03-18 06:45:00,
2013-03-18 02:50:00,36.4,34.0,30.15,NNE,18,4.0,5.8,91,0.00,,SCT,0.00,VWS V14.01,2013-03-18 06:50:00,
2013-03-18 02:55:00,36.4,34.0,30.15,East,91,4.5,6.7,91,0.00,,SCT,0.00,VWS V14.01,2013-03-18 06:55:00,
2013-03-18 03:00:00,36.4,34.0,30.15,NE,55,4.5,6.7,91,0.00,,SCT,0.00,VWS V14.01,2013-03-18 07:00:00,
2013-03-18 03:05:00,36.4,34.3,30.15,ENE,71,4.0,7.4,92,0.00,,SCT,0.00,VWS V14.01,2013-03-18 07:05:00,
2013-03-18 03:10:00,36.4,34.3,30.15,NE,51,6.9,8.3,92,0.00,,SCT,0.00,VWS V14.01,2013-03-18 07:10:00,
2013-03-18 03:15:00,36.4,34.3,30.15,ENE,67,4.9,6.7,92,0.00,,SCT,0.00,VWS V14.01,2013-03-18 07:15:00,
2013-03-18 03:20:00,36.4,34.3,30.15,ENE,65,6.7,6.7,92,0.00,,SCT,0.00,VWS V14.01,2013-03-18 07:20:00,
2013-03-18 03:25:00,36.4,34.3,30.15,ENE,70,6.7,6.9,92,0.00,,SCT,0.00,VWS V14.01,2013-03-18 07:25:00,
2013-03-18 03:30:00,36.4,34.3,30.15,ENE,69,5.8,8.7,92,0.00,,SCT,0.00,VWS V14.01,2013-03-18 07:30:00,
2013-03-18 03:35:00,36.4,34.3,30.15,NNE,25,8.3,8.3,92,0.00,,SCT,0.00,VWS V14.01,2013-03-18 07:35:00,
2013-03-18 03:40:00,36.4,34.3,30.15,NE,47,11.6,11.6,92,0.00,,SCT,0.00,VWS V14.01,2013-03-18 07:40:00,
2013-03-18 03:45:00,36.4,34.3,30.15,NE,55,4.0,5.8,92,0.00,,SCT,0.00,VWS V14.01,2013-03-18 07:45:00,
2013-03-18 03:50:00,36.4,34.3,30.15,ENE,65,6.9,7.8,92,0.00,,SCT,0.00,VWS V14.01,2013-03-18 07:50:00,
2013-03-18 03:55:00,36.4,34.3,30.15,NE,50,5.4,6.3,92,0.00,,SCT,0.00,VWS V14.01,2013-03-18 07:55:00,
2013-03-18 04:00:00,36.4,34.3,30.15,NE,48,6.3,6.3,92,0.00,,SCT,0.00,VWS V14.01,2013-03-18 08:00:00,
2013-03-18 04:05:00,36.4,34.3,30.15,NE,41,5.4,7.8,92,0.00,,SCT,0.00,VWS V14.01,2013-03-18 08:05:00,
2013-03-18 04:10:00,36.4,34.3,30.15,ENE,75,5.4,5.4,92,0.00,,SCT,0.00,VWS V14.01,2013-03-18 08:10:00,
2013-03-18 04:15:00,36.4,34.3,30.15,NE,53,5.8,7.4,92,0.00,,SCT,0.00,VWS V14.01,2013-03-18 08:15:00,
2013-03-18 04:20:00,36.4,34.3,30.15,NE,54,5.8,5.8,92,0.00,,SCT,0.00,VWS V14.01,2013-03-18 08:20:00,
2013-03-18 04:25:00,36.4,34.3,30.15,NE,47,5.4,5.4,92,0.00,,SCT,0.00,VWS V14.01,2013-03-18 08:25:00,
2013-03-18 04:30:00,36.4,34.3,30.15,ENE,69,4.9,5.4,92,0.00,,SCT,0.00,VWS V14.01,2013-03-18 08:30:00,
2013-03-18 04:35:00,36.4,34.3,30.15,NE,46,3.6,5.4,92,0.00,,SCT,0.00,VWS V14.01,2013-03-18 08:35:00,
2013-03-18 04:39:00,36.4,34.3,30.15,NE,48,4.9,6.3,92,0.00,,SCT,0.00,VWS V14.01,2013-03-18 08:39:00,
2013-03-18 04:44:00,36.4,34.6,30.15,East,79,7.4,7.8,93,0.00,,SCT,0.00,VWS V14.01,2013-03-18 08:44:00,
2013-03-18 04:49:00,36.4,34.6,30.15,NNE,25,5.4,8.3,93,0.00,,SCT,0.00,VWS V14.01,2013-03-18 08:49:00,
2013-03-18 04:54:00,36.4,34.6,30.15,NNE,19,6.3,6.7,93,0.00,,SCT,0.00,VWS V14.01,2013-03-18 08:54:00,
2013-03-18 04:59:00,36.4,34.6,30.15,NE,48,4.9,4.9,93,0.00,,SCT,0.00,VWS V14.01,2013-03-18 08:59:00,
2013-03-18 05:04:00,36.4,34.6,30.15,ENE,74,2.7,3.6,93,0.00,,SCT,0.00,VWS V14.01,2013-03-18 09:04:00,
2013-03-18 05:09:00,36.4,34.6,30.15,NE,48,4.0,4.9,93,0.00,,SCT,0.00,VWS V14.01,2013-03-18 09:09:00,
2013-03-18 05:14:00,36.4,34.6,30.15,NE,35,5.4,5.4,93,0.00,,SCT,0.00,VWS V14.01,2013-03-18 09:14:00,
2013-03-18 05:19:00,36.4,34.6,30.15,NNE,28,2.7,5.8,93,0.00,,SCT,0.00,VWS V14.01,2013-03-18 09:19:00,
2013-03-18 05:24:00,36.4,34.6,30.15,NE,49,5.8,6.3,93,0.04,,SCT,0.04,VWS V14.01,2013-03-18 09:24:00,
2013-03-18 05:29:00,36.4,34.6,30.15,NE,45,5.4,7.4,93,0.04,,SCT,0.04,VWS V14.01,2013-03-18 09:29:00,
2013-03-18 05:34:00,36.4,34.6,30.15,NE,38,5.4,6.9,93,0.04,,SCT,0.04,VWS V14.01,2013-03-18 09:34:00,
2013-03-18 05:39:00,36.4,34.6,30.15,NE,44,8.3,8.3,93,0.04,,SCT,0.04,VWS V14.01,2013-03-18 09:39:00,
2013-03-18 05:44:00,36.4,34.6,30.15,ENE,59,8.3,8.3,93,0.04,,SCT,0.04,VWS V14.01,2013-03-18 09:44:00,
2013-03-18 05:49:00,36.4,34.6,30.15,NE,44,6.7,6.7,93,0.04,,SCT,0.04,VWS V14.01,2013-03-18 09:49:00,
2013-03-18 05:54:00,35.1,33.3,30.15,ESE,118,4.5,7.4,93,0.04,,SCT,0.04,VWS V14.01,2013-03-18 09:54:00,
2013-03-18 05:59:00,35.1,33.3,30.15,ENE,66,2.7,4.0,93,0.04,,SCT,0.04,VWS V14.01,2013-03-18 09:59:00,
2013-03-18 06:04:00,35.1,33.3,30.15,NE,50,5.8,6.3,93,0.04,,SCT,0.04,VWS V14.01,2013-03-18 10:04:00,
2013-03-18 06:09:00,35.1,33.3,30.15,ENE,73,3.6,6.3,93,0.04,,SCT,0.04,VWS V14.01,2013-03-18 10:09:00,
2013-03-18 06:14:00,35.1,33.3,30.15,ENE,64,3.6,5.8,93,0.04,,SCT,0.04,VWS V14.01,2013-03-18 10:14:00,
2013-03-18 06:19:00,35.1,33.3,30.15,ENE,58,4.9,6.7,93,0.04,,SCT,0.04,VWS V14.01,2013-03-18 10:19:00,
2013-03-18 06:24:00,35.3,33.5,30.15,NE,50,0.0,3.1,93,0.00,,SCT,0.04,VWS V14.01,2013-03-18 10:24:00,
2013-03-18 06:29:00,35.1,33.3,30.18,East,82,4.9,5.8,93,0.00,,SCT,0.04,VWS V14.01,2013-03-18 10:29:00,
2013-03-18 06:34:00,35.1,33.3,30.18,NNE,26,5.8,5.8,93,0.00,,SCT,0.04,VWS V14.01,2013-03-18 10:34:00,
2013-03-18 06:39:00,35.1,33.3,30.18,NE,38,4.0,4.0,93,0.00,,SCT,0.04,VWS V14.01,2013-03-18 10:39:00,
2013-03-18 06:44:00,35.0,33.2,30.15,ENE,75,3.6,4.0,93,0.00,,SCT,0.04,VWS V14.01,2013-03-18 10:44:00,
2013-03-18 06:49:00,35.0,33.2,30.15,NE,50,4.5,5.8,93,0.00,,SCT,0.04,VWS V14.01,2013-03-18 10:49:00,
2013-03-18 06:54:00,35.0,33.2,30.15,NE,47,5.8,5.8,93,0.00,,SCT,0.04,VWS V14.01,2013-03-18 10:54:00,
2013-03-18 06:59:00,35.0,33.2,30.15,NE,39,7.8,7.8,93,0.00,,SCT,0.04,VWS V14.01,2013-03-18 10:59:00,
2013-03-18 07:04:00,35.0,33.2,30.15,NE,39,7.8,7.8,93,0.00,,SCT,0.04,VWS V14.01,2013-03-18 11:04:00,
2013-03-18 07:09:00,35.0,33.2,30.15,NE,39,7.8,7.8,93,0.00,,SCT,0.04,VWS V14.01,2013-03-18 11:09:00,
2013-03-18 07:14:00,35.1,33.3,30.15,NE,39,7.8,7.8,93,0.00,,SCT,0.04,VWS V14.01,2013-03-18 11:14:00,
2013-03-18 07:19:00,35.0,33.2,30.15,NE,39,7.8,7.8,93,0.00,,SCT,0.04,VWS V14.01,2013-03-18 11:19:00,
2013-03-18 07:24:00,35.0,33.2,30.15,NE,39,7.8,7.8,93,0.00,,SCT,0.04,VWS V14.01,2013-03-18 11:24:00,
2013-03-18 07:29:00,35.0,33.2,30.18,NE,39,7.8,7.8,93,0.00,,SCT,0.04,VWS V14.01,2013-03-18 11:29:00,
2013-03-18 07:34:00,35.0,33.2,30.18,NE,39,7.8,7.8,93,0.00,,SCT,0.04,VWS V14.01,2013-03-18 11:34:00,
2013-03-18 07:39:00,35.0,33.2,30.18,NE,39,7.8,7.8,93,0.00,,SCT,0.04,VWS V14.01,2013-03-18 11:39:00,
2013-03-18 07:44:00,34.8,33.0,30.18,NE,39,7.8,7.8,93,0.00,,SCT,0.04,VWS V14.01,2013-03-18 11:44:00,
2013-03-18 07:49:00,34.8,33.0,30.18,NE,39,7.8,7.8,93,0.00,,SCT,0.04,VWS V14.01,2013-03-18 11:49:00,
2013-03-18 07:54:00,34.8,33.0,30.18,NE,39,7.8,7.8,93,0.00,,SCT,0.04,VWS V14.01,2013-03-18 11:54:00,
2013-03-18 07:59:00,35.0,33.2,30.18,NE,39,7.8,7.8,93,0.00,,SCT,0.04,VWS V14.01,2013-03-18 11:59:00,
2013-03-18 08:04:00,35.0,33.2,30.18,NE,39,7.8,7.8,93,0.00,,SCT,0.04,VWS V14.01,2013-03-18 12:04:00,
2013-03-18 08:09:00,35.0,33.2,30.18,NE,39,7.8,7.8,93,0.00,,SCT,0.04,VWS V14.01,2013-03-18 12:09:00,
2013-03-18 08:14:00,35.0,33.2,30.18,NE,39,7.8,7.8,93,0.00,,SCT,0.04,VWS V14.01,2013-03-18 12:14:00,
2013-03-18 08:19:00,34.8,33.0,30.18,NE,39,7.8,7.8,93,0.00,,SCT,0.04,VWS V14.01,2013-03-18 12:19:00,
2013-03-18 08:24:00,34.8,33.0,30.18,NE,39,7.8,7.8,93,0.00,,SCT,0.04,VWS V14.01,2013-03-18 12:24:00,
2013-03-18 08:29:00,34.8,33.0,30.15,NE,39,7.8,7.8,93,0.00,,SCT,0.04,VWS V14.01,2013-03-18 12:29:00,
2013-03-18 08:34:00,34.8,33.0,30.15,NE,39,7.8,7.8,93,0.00,,SCT,0.04,VWS V14.01,2013-03-18 12:34:00,
2013-03-18 08:39:00,34.8,33.0,30.15,NE,39,7.8,7.8,93,0.00,,SCT,0.04,VWS V14.01,2013-03-18 12:39:00,
2013-03-18 08:44:00,34.8,33.0,30.15,NE,39,7.8,7.8,93,0.00,,SCT,0.04,VWS V14.01,2013-03-18 12:44:00,
2013-03-18 08:49:00,34.8,33.0,30.15,NE,39,7.8,7.8,93,0.00,,SCT,0.04,VWS V14.01,2013-03-18 12:49:00,
2013-03-18 08:54:00,35.0,33.2,30.15,NE,39,7.8,7.8,93,0.00,,SCT,0.04,VWS V14.01,2013-03-18 12:54:00,
2013-03-18 08:59:00,34.8,33.0,30.15,NE,39,7.8,7.8,93,0.00,,SCT,0.04,VWS V14.01,2013-03-18 12:59:00,
2013-03-18 09:04:00,34.8,33.0,30.15,NE,39,7.8,7.8,93,0.00,,SCT,0.04,VWS V14.01,2013-03-18 13:04:00,
2013-03-18 09:09:00,34.8,33.0,30.15,NE,39,7.8,7.8,93,0.00,,SCT,0.04,VWS V14.01,2013-03-18 13:09:00,
2013-03-18 09:14:00,34.8,33.0,30.15,NE,39,7.8,7.8,93,0.00,,SCT,0.04,VWS V14.01,2013-03-18 13:14:00,
2013-03-18 09:19:00,35.0,33.2,30.15,NE,39,7.8,7.8,93,0.00,,SCT,0.04,VWS V14.01,2013-03-18 13:19:00,
2013-03-18 09:24:00,34.8,33.0,30.15,NE,39,7.8,7.8,93,0.00,,SCT,0.04,VWS V14.01,2013-03-18 13:24:00,
2013-03-18 09:29:00,34.8,33.0,30.15,NE,39,7.8,7.8,93,0.00,,SCT,0.04,VWS V14.01,2013-03-18 13:29:00,
2013-03-18 09:34:00,34.8,33.0,30.15,NE,39,7.8,7.8,93,0.00,,SCT,0.04,VWS V14.01,2013-03-18 13:34:00,
2013-03-18 09:39:00,34.8,33.0,30.15,NE,39,7.8,7.8,93,0.00,,SCT,0.04,VWS V14.01,2013-03-18 13:39:00,
2013-03-18 09:44:00,34.8,33.0,30.15,NE,39,7.8,7.8,93,0.00,,SCT,0.04,VWS V14.01,2013-03-18 13:44:00,
2013-03-18 09:49:00,34.8,33.0,30.15,NE,39,7.8,7.8,93,0.00,,SCT,0.04,VWS V14.01,2013-03-18 13:49:00,
2013-03-18 09:54:00,34.8,33.0,30.15,NE,39,7.8,7.8,93,0.00,,SCT,0.04,VWS V14.01,2013-03-18 13:54:00,
2013-03-18 09:59:00,34.8,33.0,30.15,NE,39,7.8,7.8,93,0.00,,SCT,0.04,VWS V14.01,2013-03-18 13:59:00,
2013-03-18 10:04:00,34.8,33.0,30.15,NE,39,7.8,7.8,93,0.00,,SCT,0.04,VWS V14.01,2013-03-18 14:04:00,
2013-03-18 10:09:00,34.8,33.0,30.15,NE,39,7.8,7.8,93,0.00,,SCT,0.04,VWS V14.01,2013-03-18 14:09:00,
2013-03-18 10:14:00,34.8,33.0,30.15,NE,39,7.8,7.8,93,0.00,,SCT,0.04,VWS V14.01,2013-03-18 14:14:00,
2013-03-18 10:19:00,34.6,32.8,30.15,NE,39,7.8,7.8,93,0.00,,SCT,0.04,VWS V14.01,2013-03-18 14:19:00,
2013-03-18 10:24:00,34.6,32.8,30.15,NE,39,7.8,7.8,93,0.00,,SCT,0.04,VWS V14.01,2013-03-18 14:24:00,
2013-03-18 10:29:00,35.0,33.2,30.15,NE,39,7.8,7.8,93,0.00,,SCT,0.04,VWS V14.01,2013-03-18 14:29:00,
2013-03-18 10:34:00,35.0,33.2,30.15,NE,39,7.8,7.8,93,0.00,,SCT,0.04,VWS V14.01,2013-03-18 14:34:00,
2013-03-18 10:39:00,35.0,33.2,30.15,NE,39,7.8,7.8,93,0.00,,SCT,0.04,VWS V14.01,2013-03-18 14:39:00,
2013-03-18 10:44:00,35.0,33.2,30.15,NE,39,7.8,7.8,93,0.00,,SCT,0.04,VWS V14.01,2013-03-18 14:44:00,
2013-03-18 10:49:00,35.1,33.3,30.15,NE,39,7.8,7.8,93,0.00,,SCT,0.04,VWS V14.01,2013-03-18 14:49:00,
2013-03-18 10:54:00,35.1,33.3,30.15,NE,39,7.8,7.8,93,0.00,,SCT,0.04,VWS V14.01,2013-03-18 14:54:00,
2013-03-18 10:59:00,35.3,33.5,30.15,NE,39,7.8,7.8,93,0.00,,SCT,0.04,VWS V14.01,2013-03-18 14:59:00,
2013-03-18 11:04:00,35.3,33.5,30.15,NE,39,7.8,7.8,93,0.00,,SCT,0.04,VWS V14.01,2013-03-18 15:04:00,
2013-03-18 11:09:00,35.5,33.7,30.15,NE,39,7.8,7.8,93,0.00,,SCT,0.04,VWS V14.01,2013-03-18 15:09:00,
2013-03-18 11:14:00,35.5,33.7,30.15,NE,39,7.8,7.8,93,0.00,,SCT,0.04,VWS V14.01,2013-03-18 15:14:00,
2013-03-18 11:19:00,35.5,33.7,30.15,NE,39,7.8,7.8,93,0.00,,SCT,0.04,VWS V14.01,2013-03-18 15:19:00,
2013-03-18 11:24:00,35.7,33.6,30.15,NE,39,7.8,7.8,92,0.00,,SCT,0.04,VWS V14.01,2013-03-18 15:24:00,
2013-03-18 11:29:00,36.2,34.1,30.12,NE,39,7.8,7.8,92,0.00,,SCT,0.04,VWS V14.01,2013-03-18 15:29:00,
2013-03-18 11:34:00,36.6,34.8,30.12,NE,39,7.8,7.8,93,0.00,,SCT,0.04,VWS V14.01,2013-03-18 15:34:00,
2013-03-18 11:39:00,36.6,34.5,30.12,NE,39,7.8,7.8,92,0.00,,SCT,0.04,VWS V14.01,2013-03-18 15:39:00,
2013-03-18 11:44:00,36.8,34.7,30.12,NE,39,7.8,7.8,92,0.00,,SCT,0.04,VWS V14.01,2013-03-18 15:44:00,
2013-03-18 11:49:00,37.3,35.2,30.12,NE,39,7.8,7.8,92,0.00,,SCT,0.04,VWS V14.01,2013-03-18 15:49:00,
2013-03-18 11:54:00,37.7,35.5,30.12,NE,39,7.8,7.8,92,0.00,,SCT,0.04,VWS V14.01,2013-03-18 15:54:00,
2013-03-18 11:59:00,37.1,34.7,30.12,NE,39,7.8,7.8,91,0.00,,SCT,0.04,VWS V14.01,2013-03-18 15:59:00,
2013-03-18 12:04:00,37.3,34.9,30.12,NE,39,7.8,7.8,91,0.00,,SCT,0.04,VWS V14.01,2013-03-18 16:04:00,
2013-03-18 12:09:00,36.8,34.1,30.12,NE,39,7.8,7.8,90,0.00,,SCT,0.04,VWS V14.01,2013-03-18 16:09:00,
2013-03-18 12:14:00,36.8,34.1,30.12,NE,39,7.8,7.8,90,0.00,,SCT,0.04,VWS V14.01,2013-03-18 16:14:00,
2013-03-18 12:19:00,36.9,34.3,30.12,NE,39,7.8,7.8,90,0.00,,SCT,0.04,VWS V14.01,2013-03-18 16:19:00,
2013-03-18 12:24:00,36.6,33.7,30.12,NE,39,7.8,7.8,89,0.00,,SCT,0.04,VWS V14.01,2013-03-18 16:24:00,
2013-03-18 12:29:00,36.6,33.7,30.12,NE,39,7.8,7.8,89,0.00,,SCT,0.04,VWS V14.01,2013-03-18 16:29:00,
2013-03-18 12:33:00,36.6,33.7,30.12,NE,39,7.8,7.8,89,0.00,,SCT,0.04,VWS V14.01,2013-03-18 16:33:00,
2013-03-18 12:39:00,36.6,33.4,30.12,NE,39,7.8,7.8,88,0.00,,SCT,0.04,VWS V14.01,2013-03-18 16:39:00,
2013-03-18 12:43:00,36.6,33.4,30.09,NE,39,7.8,7.8,88,0.00,,SCT,0.04,VWS V14.01,2013-03-18 16:43:00,
2013-03-18 12:48:00,36.8,33.3,30.09,NE,39,7.8,7.8,87,0.00,,SCT,0.04,VWS V14.01,2013-03-18 16:48:00,
2013-03-18 12:53:00,37.1,33.9,30.09,NE,54,6.9,6.9,88,0.00,,SCT,0.04,VWS V14.01,2013-03-18 16:53:00,
2013-03-18 12:58:00,37.7,34.2,30.09,ESE,102,4.5,7.4,87,0.00,,SCT,0.04,VWS V14.01,2013-03-18 16:58:00,
2013-03-18 13:03:00,38.0,34.5,30.09,SE,139,0.0,3.6,87,0.00,,SCT,0.04,VWS V14.01,2013-03-18 17:03:00,
2013-03-18 13:08:00,37.8,34.3,30.09,ENE,59,4.0,4.9,87,0.00,,SCT,0.04,VWS V14.01,2013-03-18 17:08:00,
2013-03-18 13:13:00,37.7,33.9,30.09,NE,47,0.0,5.4,86,0.00,,SCT,0.04,VWS V14.01,2013-03-18 17:13:00,
2013-03-18 13:18:00,38.2,34.4,30.09,ENE,63,4.5,4.5,86,0.00,,SCT,0.04,VWS V14.01,2013-03-18 17:18:00,
2013-03-18 13:23:00,38.0,34.2,30.09,ENE,73,0.0,4.0,86,0.00,,SCT,0.04,VWS V14.01,2013-03-18 17:23:00,
2013-03-18 13:28:00,37.7,33.9,30.09,NE,49,4.5,5.4,86,0.00,,SCT,0.04,VWS V14.01,2013-03-18 17:28:00,
2013-03-18 13:33:00,37.5,33.4,30.09,ENE,58,2.7,3.6,85,0.00,,SCT,0.04,VWS V14.01,2013-03-18 17:33:00,
2013-03-18 13:38:00,37.3,33.2,30.09,ENE,59,5.4,7.8,85,0.00,,SCT,0.04,VWS V14.01,2013-03-18 17:38:00,
2013-03-18 13:43:00,37.7,33.6,30.06,NE,39,2.7,4.0,85,0.00,,SCT,0.04,VWS V14.01,2013-03-18 17:43:00,
2013-03-18 13:48:00,38.0,33.9,30.06,NE,37,6.3,6.3,85,0.00,,SCT,0.04,VWS V14.01,2013-03-18 17:48:00,
2013-03-18 13:53:00,37.8,33.5,30.06,NE,42,0.0,3.6,84,0.00,,SCT,0.04,VWS V14.01,2013-03-18 17:53:00,
2013-03-18 13:58:00,38.2,33.8,30.06,East,89,3.6,4.0,84,0.00,,SCT,0.04,VWS V14.01,2013-03-18 17:58:00,
2013-03-18 14:03:00,38.2,33.8,30.06,ENE,71,4.5,5.8,84,0.00,,SCT,0.04,VWS V14.01,2013-03-18 18:03:00,
2013-03-18 14:08:00,38.2,33.8,30.06,NE,54,4.9,4.9,84,0.00,,SCT,0.04,VWS V14.01,2013-03-18 18:08:00,
2013-03-18 14:13:00,38.2,33.8,30.03,NE,44,5.4,5.4,84,0.00,,SCT,0.04,VWS V14.01,2013-03-18 18:13:00,
2013-03-18 14:18:00,38.2,33.5,30.03,NE,50,4.9,4.9,83,0.00,,SCT,0.04,VWS V14.01,2013-03-18 18:18:00,
2013-03-18 14:23:00,37.8,33.2,30.03,ESE,123,0.0,4.5,83,0.00,,SCT,0.04,VWS V14.01,2013-03-18 18:23:00,
2013-03-18 14:28:00,37.8,33.2,30.03,NE,56,0.0,4.0,83,0.00,,SCT,0.04,VWS V14.01,2013-03-18 18:28:00,
2013-03-18 14:33:00,38.0,33.3,30.03,ENE,59,4.0,6.3,83,0.00,,SCT,0.04,VWS V14.01,2013-03-18 18:33:00,
2013-03-18 14:38:00,37.8,32.8,30.03,NE,38,5.4,8.3,82,0.00,,SCT,0.04,VWS V14.01,2013-03-18 18:38:00,
2013-03-18 14:43:00,37.5,31.9,30.03,ENE,63,4.9,4.9,80,0.00,,SCT,0.04,VWS V14.01,2013-03-18 18:43:00,
2013-03-18 14:48:00,37.5,31.9,30.03,NNE,27,4.5,6.3,80,0.00,,SCT,0.04,VWS V14.01,2013-03-18 18:48:00,
2013-03-18 14:53:00,37.5,32.2,30.03,NE,37,4.0,5.4,81,0.00,,SCT,0.04,VWS V14.01,2013-03-18 18:53:00,
2013-03-18 14:58:00,37.8,32.5,30.03,ENE,69,4.9,5.4,81,0.00,,SCT,0.04,VWS V14.01,2013-03-18 18:58:00,
2013-03-18 15:03:00,38.2,32.9,30.03,NNE,25,3.1,4.0,81,0.00,,SCT,0.04,VWS V14.01,2013-03-18 19:03:00,
2013-03-18 15:08:00,38.2,32.9,30.03,NE,39,5.4,5.4,81,0.00,,SCT,0.04,VWS V14.01,2013-03-18 19:08:00,
2013-03-18 15:13:00,38.0,32.4,30.03,NE,46,4.5,4.5,80,0.00,,SCT,0.04,VWS V14.01,2013-03-18 19:13:00,
2013-03-18 15:18:00,38.0,32.4,30.03,NE,43,4.0,4.5,80,0.00,,SCT,0.04,VWS V14.01,2013-03-18 19:18:00,
2013-03-18 15:23:00,38.4,33.1,30.03,ENE,65,0.0,2.7,81,0.00,,SCT,0.04,VWS V14.01,2013-03-18 19:23:00,
2013-03-18 15:28:00,38.6,33.2,30.00,SE,129,2.7,4.0,81,0.00,,SCT,0.04,VWS V14.01,2013-03-18 19:28:00,
2013-03-18 15:33:00,38.6,33.2,30.00,NE,40,3.1,4.5,81,0.00,,SCT,0.04,VWS V14.01,2013-03-18 19:33:00,
2013-03-18 15:38:00,38.4,32.8,30.00,NE,46,3.1,4.5,80,0.00,,SCT,0.04,VWS V14.01,2013-03-18 19:38:00,
2013-03-18 15:43:00,38.4,32.8,30.00,ENE,67,3.6,5.8,80,0.00,,SCT,0.04,VWS V14.01,2013-03-18 19:43:00,
2013-03-18 15:48:00,38.4,32.8,30.00,NE,40,4.5,4.9,80,0.00,,SCT,0.04,VWS V14.01,2013-03-18 19:48:00,
2013-03-18 15:53:00,38.4,32.8,30.00,NE,39,0.0,0.0,80,0.00,,SCT,0.04,VWS V14.01,2013-03-18 19:53:00,
2013-03-18 15:58:00,38.4,32.8,30.00,NE,39,0.0,0.0,80,0.00,,SCT,0.04,VWS V14.01,2013-03-18 19:58:00,
2013-03-18 16:03:00,38.6,33.2,30.00,NE,55,4.5,4.5,81,0.00,,SCT,0.04,VWS V14.01,2013-03-18 20:03:00,
2013-03-18 16:08:00,38.6,32.9,30.00,NE,41,4.5,4.5,80,0.00,,SCT,0.04,VWS V14.01,2013-03-18 20:08:00,
2013-03-18 16:13:00,38.4,32.8,30.00,NE,41,0.0,0.0,80,0.00,,SCT,0.04,VWS V14.01,2013-03-18 20:13:00,
2013-03-18 16:18:00,38.6,33.2,30.00,ENE,59,3.6,3.6,81,0.00,,SCT,0.04,VWS V14.01,2013-03-18 20:18:00,
2013-03-18 16:23:00,38.6,32.9,30.00,NE,53,3.6,6.3,80,0.00,,SCT,0.04,VWS V14.01,2013-03-18 20:23:00,
2013-03-18 16:28:00,38.4,32.8,30.00,NE,39,0.0,0.0,80,0.00,,SCT,0.04,VWS V14.01,2013-03-18 20:28:00,
2013-03-18 16:33:00,38.4,32.8,30.00,NE,50,4.5,5.4,80,0.00,,SCT,0.04,VWS V14.01,2013-03-18 20:33:00,
2013-03-18 16:38:00,38.0,32.4,30.00,ENE,72,4.0,4.0,80,0.00,,SCT,0.04,VWS V14.01,2013-03-18 20:38:00,
2013-03-18 16:43:00,37.7,31.8,29.97,NNE,33,6.7,6.7,79,0.00,,SCT,0.04,VWS V14.01,2013-03-18 20:43:00,
2013-03-18 16:48:00,37.8,32.2,29.97,ENE,59,4.5,4.5,80,0.00,,SCT,0.04,VWS V14.01,2013-03-18 20:48:00,
2013-03-18 16:53:00,38.0,32.7,29.97,ESE,104,0.0,2.7,81,0.00,,SCT,0.04,VWS V14.01,2013-03-18 20:53:00,
2013-03-18 16:58:00,37.8,32.2,29.97,NE,35,5.4,6.7,80,0.00,,SCT,0.04,VWS V14.01,2013-03-18 20:58:00,
2013-03-18 17:03:00,37.7,32.1,29.97,ENE,58,4.0,4.0,80,0.00,,SCT,0.04,VWS V14.01,2013-03-18 21:03:00,
2013-03-18 17:08:00,37.7,32.4,29.97,ENE,58,4.0,4.0,81,0.00,,SCT,0.04,VWS V14.01,2013-03-18 21:08:00,
2013-03-18 17:13:00,37.5,32.2,29.97,ENE,58,4.0,4.0,81,0.00,,SCT,0.04,VWS V14.01,2013-03-18 21:13:00,
2013-03-18 17:18:00,37.7,32.4,29.97,ENE,58,4.0,4.0,81,0.00,,SCT,0.04,VWS V14.01,2013-03-18 21:18:00,
2013-03-18 17:23:00,37.7,32.4,29.97,ENE,58,4.0,4.0,81,0.00,,SCT,0.04,VWS V14.01,2013-03-18 21:23:00,
2013-03-18 17:28:00,37.7,32.4,29.97,ENE,58,4.0,4.0,81,0.00,,SCT,0.04,VWS V14.01,2013-03-18 21:28:00,
2013-03-18 17:33:00,37.5,32.2,29.97,NE,49,4.9,4.9,81,0.00,,SCT,0.04,VWS V14.01,2013-03-18 21:33:00,
2013-03-18 17:38:00,37.3,32.0,29.97,ENE,57,4.9,4.9,81,0.00,,SCT,0.04,VWS V14.01,2013-03-18 21:38:00,
2013-03-18 17:43:00,37.1,32.1,29.97,NE,43,0.0,0.0,82,0.00,,SCT,0.04,VWS V14.01,2013-03-18 21:43:00,
2013-03-18 17:48:00,37.3,32.3,29.97,NE,43,3.6,3.6,82,0.04,,SCT,0.08,VWS V14.01,2013-03-18 21:48:00,
2013-03-18 17:53:00,37.1,32.1,29.97,ENE,73,3.6,3.6,82,0.04,,SCT,0.08,VWS V14.01,2013-03-18 21:53:00,
2013-03-18 17:58:00,37.1,32.1,29.97,NE,42,5.4,5.4,82,0.04,,SCT,0.08,VWS V14.01,2013-03-18 21:58:00,
2013-03-18 18:03:00,37.1,32.1,29.97,North,356,0.0,0.0,82,0.04,,SCT,0.08,VWS V14.01,2013-03-18 22:03:00,
2013-03-18 18:08:00,37.1,32.1,29.97,NE,52,3.1,4.5,82,0.04,,SCT,0.08,VWS V14.01,2013-03-18 22:08:00,
2013-03-18 18:13:00,37.1,32.1,29.97,ENE,59,0.0,0.0,82,0.04,,SCT,0.08,VWS V14.01,2013-03-18 22:13:00,
2013-03-18 18:18:00,37.1,32.1,29.97,NE,51,4.9,5.8,82,0.04,,SCT,0.08,VWS V14.01,2013-03-18 22:18:00,
2013-03-18 18:23:00,37.1,32.1,29.97,ENE,70,4.0,5.8,82,0.04,,SCT,0.08,VWS V14.01,2013-03-18 22:23:00,
2013-03-18 18:28:00,37.1,32.4,29.97,NE,48,4.5,6.7,83,0.04,,SCT,0.08,VWS V14.01,2013-03-18 22:28:00,
2013-03-18 18:33:00,37.1,32.4,29.97,NE,46,3.6,4.0,83,0.04,,SCT,0.08,VWS V14.01,2013-03-18 22:33:00,
2013-03-18 18:38:00,37.1,32.4,29.97,NE,36,0.0,4.5,83,0.04,,SCT,0.08,VWS V14.01,2013-03-18 22:38:00,
2013-03-18 18:43:00,37.1,32.4,29.97,NE,44,4.9,6.9,83,0.04,,SCT,0.08,VWS V14.01,2013-03-18 22:43:00,
2013-03-18 18:48:00,37.1,32.4,29.97,NE,44,3.1,5.4,83,0.00,,SCT,0.08,VWS V14.01,2013-03-18 22:48:00,
2013-03-18 18:53:00,37.1,32.4,29.97,ENE,59,2.7,4.5,83,0.00,,SCT,0.08,VWS V14.01,2013-03-18 22:53:00,
2013-03-18 18:58:00,37.1,32.4,29.97,NE,47,4.9,7.8,83,0.00,,SCT,0.08,VWS V14.01,2013-03-18 22:58:00,
2013-03-18 19:03:00,37.1,32.4,29.97,North,3,2.7,3.1,83,0.00,,SCT,0.08,VWS V14.01,2013-03-18 23:03:00,
2013-03-18 19:08:00,37.1,32.4,29.97,North,8,0.0,0.0,83,0.04,,SCT,0.12,VWS V14.01,2013-03-18 23:08:00,
2013-03-18 19:13:00,37.1,32.4,30.00,North,0,0.0,3.1,83,0.04,,SCT,0.12,VWS V14.01,2013-03-18 23:13:00,
2013-03-18 19:18:00,37.1,32.4,30.00,NNE,25,0.0,4.5,83,0.04,,SCT,0.12,VWS V14.01,2013-03-18 23:18:00,
2013-03-18 19:23:00,37.1,32.4,30.00,NNE,23,0.0,0.0,83,0.04,,SCT,0.12,VWS V14.01,2013-03-18 23:23:00,
2013-03-18 19:28:00,37.1,32.4,30.03,WNW,286,3.1,4.0,83,0.04,,SCT,0.12,VWS V14.01,2013-03-18 23:28:00,
2013-03-18 19:32:00,37.1,32.4,30.03,WNW,286,0.0,0.0,83,0.04,,SCT,0.12,VWS V14.01,2013-03-18 23:32:00,
2013-03-18 19:37:00,37.1,32.4,30.03,WNW,286,0.0,2.7,83,0.04,,SCT,0.12,VWS V14.01,2013-03-18 23:37:00,
2013-03-18 19:42:00,37.1,32.4,30.03,West,263,3.1,3.1,83,0.04,,SCT,0.12,VWS V14.01,2013-03-18 23:42:00,
2013-03-18 19:47:00,37.1,32.4,30.03,NNW,337,0.0,3.6,83,0.04,,SCT,0.12,VWS V14.01,2013-03-18 23:47:00,
2013-03-18 19:52:00,37.1,32.4,30.03,NW,308,0.0,0.0,83,0.04,,SCT,0.12,VWS V14.01,2013-03-18 23:52:00,
2013-03-18 19:57:00,35.9,31.5,30.00,NE,38,0.0,2.7,84,0.12,,SCT,0.20,VWS V14.01,2013-03-18 23:57:00,
2013-03-18 20:02:00,36.0,32.0,30.00,ESE,113,0.0,4.5,85,0.12,,SCT,0.20,VWS V14.01,2013-03-19 00:02:00,
2013-03-18 20:07:00,35.9,31.8,30.00,NNE,22,4.5,4.5,85,0.08,,SCT,0.20,VWS V14.01,2013-03-19 00:07:00,
2013-03-18 20:12:00,35.9,31.8,29.97,SE,130,0.0,0.0,85,0.08,,SCT,0.20,VWS V14.01,2013-03-19 00:12:00,
2013-03-18 20:17:00,36.0,32.0,29.97,ESE,122,0.0,4.0,85,0.08,,SCT,0.20,VWS V14.01,2013-03-19 00:17:00,
2013-03-18 20:22:00,36.0,32.0,29.97,NE,39,4.5,4.9,85,0.08,,SCT,0.20,VWS V14.01,2013-03-19 00:22:00,
2013-03-18 20:27:00,35.9,31.8,29.94,NE,56,2.7,4.5,85,0.08,,SCT,0.20,VWS V14.01,2013-03-19 00:27:00,
2013-03-18 20:32:00,35.9,31.8,29.94,ENE,63,0.0,0.0,85,0.08,,SCT,0.20,VWS V14.01,2013-03-19 00:32:00,
2013-03-18 20:37:00,35.9,31.8,29.94,NE,39,2.7,3.1,85,0.12,,SCT,0.24,VWS V14.01,2013-03-19 00:37:00,
2013-03-18 20:42:00,35.9,31.8,29.94,NE,44,0.0,3.6,85,0.12,,SCT,0.24,VWS V14.01,2013-03-19 00:42:00,
2013-03-18 20:47:00,35.9,31.8,29.94,NE,47,3.6,3.6,85,0.12,,SCT,0.24,VWS V14.01,2013-03-19 00:47:00,
2013-03-18 20:52:00,36.0,32.3,29.94,ESE,120,2.7,2.7,86,0.12,,SCT,0.24,VWS V14.01,2013-03-19 00:52:00,
2013-03-18 20:57:00,36.0,32.3,29.94,ESE,115,3.1,3.6,86,0.12,,SCT,0.24,VWS V14.01,2013-03-19 00:57:00,
2013-03-18 21:02:00,36.2,32.4,29.94,East,94,4.0,4.0,86,0.04,,SCT,0.24,VWS V14.01,2013-03-19 01:02:00,
2013-03-18 21:07:00,36.2,32.4,29.94,ESE,122,3.1,3.6,86,0.04,,SCT,0.24,VWS V14.01,2013-03-19 01:07:00,
2013-03-18 21:12:00,36.0,32.3,29.91,ESE,103,3.6,6.3,86,0.04,,SCT,0.24,VWS V14.01,2013-03-19 01:12:00,
2013-03-18 21:17:00,35.9,32.1,29.91,East,86,3.1,3.1,86,0.04,,SCT,0.24,VWS V14.01,2013-03-19 01:17:00,
2013-03-18 21:22:00,35.7,31.9,29.91,SE,128,2.7,5.4,86,0.04,,SCT,0.24,VWS V14.01,2013-03-19 01:22:00,
2013-03-18 21:27:00,35.7,31.9,29.91,ESE,122,3.6,3.6,86,0.04,,SCT,0.24,VWS V14.01,2013-03-19 01:27:00,
2013-03-18 21:32:00,35.5,31.7,29.91,ESE,117,0.0,0.0,86,0.04,,SCT,0.24,VWS V14.01,2013-03-19 01:32:00,
2013-03-18 21:37:00,35.3,31.6,29.91,West,267,4.5,4.5,86,0.00,,SCT,0.24,VWS V14.01,2013-03-19 01:37:00,
2013-03-18 21:42:00,35.3,31.6,29.88,ESE,104,0.0,4.5,86,0.00,,SCT,0.24,VWS V14.01,2013-03-19 01:42:00,
2013-03-18 21:47:00,35.1,31.4,29.88,NE,55,0.0,3.6,86,0.00,,SCT,0.24,VWS V14.01,2013-03-19 01:47:00,
2013-03-18 21:52:00,35.1,31.7,29.88,NE,55,0.0,0.0,87,0.00,,SCT,0.24,VWS V14.01,2013-03-19 01:52:00,
2013-03-18 21:57:00,35.1,31.7,29.88,NE,55,0.0,3.1,87,0.00,,SCT,0.24,VWS V14.01,2013-03-19 01:57:00,
2013-03-18 22:02:00,35.1,31.7,29.88,NE,55,3.1,3.6,87,0.00,,SCT,0.24,VWS V14.01,2013-03-19 02:02:00,
2013-03-18 22:07:00,35.3,31.8,29.88,NE,55,0.0,0.0,87,0.00,,SCT,0.24,VWS V14.01,2013-03-19 02:07:00,
2013-03-18 22:12:00,35.5,32.3,29.88,NE,55,0.0,0.0,88,0.00,,SCT,0.24,VWS V14.01,2013-03-19 02:12:00,
2013-03-18 22:17:00,35.5,32.3,29.88,NE,55,2.7,2.7,88,0.00,,SCT,0.24,VWS V14.01,2013-03-19 02:17:00,
2013-03-18 22:22:00,35.7,32.2,29.88,NE,55,0.0,0.0,87,0.00,,SCT,0.24,VWS V14.01,2013-03-19 02:22:00,
2013-03-18 22:27:00,35.7,32.2,29.88,NE,55,0.0,0.0,87,0.00,,SCT,0.24,VWS V14.01,2013-03-19 02:27:00,
2013-03-18 22:32:00,35.5,32.3,29.88,NE,55,0.0,0.0,88,0.00,,SCT,0.24,VWS V14.01,2013-03-19 02:32:00,
2013-03-18 22:37:00,35.3,31.8,29.88,NE,53,4.0,4.9,87,0.00,,SCT,0.24,VWS V14.01,2013-03-19 02:37:00,
2013-03-18 22:42:00,35.3,31.8,29.85,NE,43,4.9,4.9,87,0.00,,SCT,0.24,VWS V14.01,2013-03-19 02:42:00,
2013-03-18 22:47:00,35.1,31.7,29.85,NNE,32,3.1,3.1,87,0.00,,SCT,0.24,VWS V14.01,2013-03-19 02:47:00,
2013-03-18 22:52:00,35.7,32.2,29.85,SSW,192,3.6,4.0,87,0.00,,SCT,0.24,VWS V14.01,2013-03-19 02:52:00,
2013-03-18 22:57:00,35.7,32.5,29.91,SSW,192,0.0,0.0,88,0.00,,SCT,0.24,VWS V14.01,2013-03-19 02:57:00,
2013-03-18 23:02:00,35.7,32.5,29.91,West,280,3.1,3.6,88,0.00,,SCT,0.24,VWS V14.01,2013-03-19 03:02:00,
2013-03-18 23:07:00,35.9,32.7,29.91,WSW,256,0.0,0.0,88,0.00,,SCT,0.24,VWS V14.01,2013-03-19 03:07:00,
2013-03-18 23:12:00,35.9,32.7,29.91,WSW,254,3.6,4.0,88,0.00,,SCT,0.24,VWS V14.01,2013-03-19 03:12:00,
2013-03-18 23:17:00,35.9,32.7,29.91,SW,214,2.7,4.0,88,0.00,,SCT,0.24,VWS V14.01,2013-03-19 03:17:00,
2013-03-18 23:22:00,35.7,32.5,29.91,NNE,33,4.9,6.7,88,0.00,,SCT,0.24,VWS V14.01,2013-03-19 03:22:00,
2013-03-18 23:27:00,35.7,32.5,29.91,NE,36,0.0,0.0,88,0.00,,SCT,0.24,VWS V14.01,2013-03-19 03:27:00,
2013-03-18 23:32:00,35.7,32.5,29.91,ESE,102,3.6,4.5,88,0.00,,SCT,0.24,VWS V14.01,2013-03-19 03:32:00,
2013-03-18 23:37:00,35.7,32.5,29.91,ESE,103,0.0,0.0,88,0.00,,SCT,0.24,VWS V14.01,2013-03-19 03:37:00,
2013-03-18 23:42:00,35.5,32.3,29.91,ESE,103,0.0,0.0,88,0.00,,SCT,0.24,VWS V14.01,2013-03-19 03:42:00,
2013-03-18 23:47:00,35.5,32.3,29.91,ESE,103,0.0,0.0,88,0.00,,SCT,0.24,VWS V14.01,2013-03-19 03:47:00,
2013-03-18 23:52:00,35.3,32.1,29.91,ESE,103,0.0,0.0,88,0.00,,SCT,0.24,VWS V14.01,2013-03-19 03:52:00,
2013-03-18 23:57:00,35.3,32.1,29.91,ESE,103,0.0,0.0,88,0.00,,SCT,0.24,VWS V14.01,2013-03-19 03:57:00,